DELTA 1 R/B, 575

Orbit data source: Space-Track

DELTA 1 R/B, 575 is space debris in HEO originally from a launch on Tue, 07 May 1963 UTC launched from the Air Force Eastern Test Range (AFETR). Debris objects in space refer to the collection of defunct objects orbiting the Earth. Examples of debris include non-operational satellites, rocket bodies, and fragments generated from explosions, collisions, or faulty payload assembly.

Loading next visibility...
Identifier
575, 1963-013B
Orbit
HEO
Last TLE update
13 hours ago
Origin
Manufacturer
ABL
Mission
Spacecraft
Bus & Motor
ALTAIR, Unknown motor
Mass
24 kg wet, 24 kg dry
Launch date (UTC)
1963-05-07 (62 years ago)
Launch vehicle
Unknown
Launch site
Air Force Eastern Test Range (AFETR)
Object type
Payload
Rocket body
Debris
Shape & HBR
Cyl, 1.52 m
Radar Cross Section
0.695 m², Medium (>0.1 m² and < 1m²)

Expand to show TLE details & history

TLE from 13 hours ago
0 DELTA 1 R/B
1 00575U 63013B   25186.74072207 -.00000091  00000-0 -11458-2 0  9994
2 00575  42.7758 292.2809 4012894 152.3483   4.4366  6.40267645453799
Epoch: 2025-07-05T17:46Z
TLE epoch observation values (Epoch: 2025-07-05T17:46:38.386Z)
Latitude
11.0515°
Longitude
-90.47238°
Altitude
996.194 km
Speed
8.694 km/s
True Right ascension
06h 40m 38s
True Declination
10° 59' 21"
Sunlit
Object was in daylight at epoch
Visualization orbit readout
Latitude
-33.27721°
Longitude
56.04856°
Altitude
9,651.958 km
Speed
4.149 km/s
Apparent Right ascension
15h 31m 36s
Apparent Declination
-54° 04' 46"
Sunlit
Object is in daylight
Visualization observer readout
Local Sidereal Time
18:14:21
Azimuth
202.873° SW
Elevation
-10.278°
Doppler factor
1
Orbital elements
Apogee altitude
10,790.666 km
Perigee altitude
957.353 km
Semi-major axis
12,252.146 km
Eccentricity
0.40129
Inclination
42.7758°
RAAN
292.2809°
Arg. of periapsis
152.3483°
True anomaly
Unknown
Mean anomaly
4.4366°
Eccentric anomaly
Unknown
Mean motion
1.60039 °/min
Orbital period
224.95 mins
BSTAR
-0.0011458
Loading maneuver chart data...
Loading SW <> Apogee altitude chart data...
Loading historical data...
Loading historical data...
Loading historical data...
Loading historical data...
Loading historical data...
Loading historical data...
Loading historical data...
Other satellites on launch #13 in the year 1963 (1963-05-07 UTC)

DELTA 1 R/B Visibility forecast

Observer location: undefined°, undefined°

Span
Click to sort rows by Start time (UTC) header in descending order
Start Az.
Max El. time (UTC)
Max El. Az.
Max El.
End time (UTC)
End Az.
87 mins2025-07-06 06:51:52.400Z191.994° SSW2025-07-06 07:55:52.400Z137.029° SSE35.628°2025-07-06 08:18:52.400Z72.247° E
51 mins2025-07-06 11:23:52.400Z248.588° W2025-07-06 12:04:52.400Z325.395° NNW44.956°2025-07-06 12:14:52.400Z74.824° E
16 mins2025-07-06 15:53:52.400Z289.39° WNW2025-07-06 16:04:52.400Z195.981° SSW42.726°2025-07-06 16:09:52.400Z128.842° SE
56 mins2025-07-07 05:20:52.400Z167.769° S2025-07-07 06:13:52.400Z125.845° SE25.562°2025-07-07 06:16:52.400Z121.43° SE
|